Location: ActonStarParty
(42.4766°N, 71.4538°W)
Time: 12:03:04
(UTC-04:00)

BREEZE-M DEB (TANK) - Pass Details

Date: 19 April 2018
Orbit: 292 x 14030 km, 46.1° (Epoch: 21 May)

Event Time Altitude Azimuth Distance (km) Brightness Sun altitude
Rises 19:45:30 0° 225° (SW) 2,549 6.1 -3.2°
Reaches altitude 10° 19:46:53 10° 221° (SW) 1,955 5.4 -3.4°
Maximum altitude 19:50:50 59° 140° (SE) 1,238 3.8 -4.1°
Drops below altitude 10° 20:05:07 10° 66° (ENE) 6,646 7.4 -6.6°
Sets 20:15:00 0° 65° (ENE) 9,986 8.3 -8.2°
